Theta_e
324 323 322 321 320 319 319 318 317 317 317 316 315 315 315 315 314 313 312 312 311 310 310 310 310 310 310 310 310 310 309 309 309 308 307 306 306 306 304 304 306 308 308 307 306 305 304 303 304 309 311 311
323 323 321 321 319 318 319 318 317 317 316 315 315 315 314 313 313 312 312 311 310 310 309 309 309 309 309 309 309 309 308 308 308 307 306 305 305 303 298 297 301 303 304 304 303 303 303 304 305 308 310 310
322 322 321 320 319 318 319 318 316 316 315 314 314 314 313 312 311 311 311 310 310 309 308 308 308 308 309 308 308 308 307 307 306 306 305 305 305 300 295 295 296 297 298 298 299 300 303 305 306 307 309 310
321 321 320 320 319 318 318 317 316 315 314 313 313 313 313 311 310 310 310 310 310 308 307 307 307 307 308 307 307 307 307 306 305 305 304 304 303 297 293 295 294 295 295 295 297 300 304 305 305 307 309 309
321 321 320 320 319 317 317 316 315 314 312 312 312 311 311 310 309 309 309 309 309 308 306 306 306 306 307 307 306 306 306 305 305 304 304 303 300 293 292 293 293 294 294 294 295 297 301 302 304 306 308 309
321 321 321 320 318 317 316 315 315 314 311 310 311 311 310 309 309 309 308 308 308 307 306 305 306 306 306 306 306 305 305 305 304 303 303 300 294 290 290 291 291 292 293 293 294 294 296 299 302 305 307 308
321 321 320 319 317 316 316 315 314 313 311 310 311 310 309 308 308 308 308 308 307 306 305 304 304 305 305 305 305 304 304 303 303 302 301 296 290 289 289 289 290 290 291 291 292 292 294 297 299 302 305 306
320 320 319 318 317 316 316 315 314 313 311 309 309 310 309 308 307 307 307 307 307 306 305 303 302 304 305 304 304 303 303 302 301 300 297 292 288 289 289 289 290 289 290 290 291 292 293 295 296 299 303 304
319 319 319 318 317 316 315 314 313 313 311 309 308 309 308 308 307 306 306 306 306 305 304 303 301 303 304 304 303 302 301 299 298 295 291 288 289 289 289 290 290 289 290 290 291 292 293 293 293 296 300 303
318 318 318 317 316 315 315 314 313 312 311 309 308 308 308 307 307 306 306 306 306 305 304 302 302 303 304 303 302 301 299 297 295 292 289 288 289 290 290 289 289 290 290 290 291 291 291 292 293 295 298 301
317 317 317 316 316 315 314 314 313 312 311 309 308 308 308 307 306 305 305 305 305 305 304 302 302 303 304 303 302 300 298 296 293 291 289 288 289 289 289 288 288 288 289 289 289 290 289 290 293 295 297 300
317 317 317 316 315 314 314 314 313 313 311 309 308 308 307 307 306 305 305 304 304 304 304 302 301 302 303 302 302 300 298 296 292 290 289 289 288 288 288 287 287 287 288 288 288 288 288 289 292 294 296 299
317 316 316 315 315 314 314 314 313 312 311 309 308 308 307 307 306 305 304 304 303 303 303 303 301 302 302 302 301 300 297 295 292 290 289 288 288 288 288 287 287 287 287 288 288 288 287 288 290 292 295 297
316 315 315 314 314 314 314 313 313 312 310 309 308 308 307 307 306 305 304 304 303 302 302 302 301 301 301 300 300 298 296 293 291 290 289 289 289 288 288 288 288 287 287 288 288 288 287 288 289 291 293 296
316 315 314 314 314 314 314 313 312 311 310 309 308 308 307 307 306 305 304 303 302 301 301 301 300 299 299 298 298 296 294 292 290 290 289 288 288 288 288 289 288 288 288 287 287 287 287 287 289 290 292 294
316 315 314 314 314 314 313 312 311 311 310 309 308 308 307 306 306 305 304 303 302 301 300 299 298 298 297 296 296 295 293 291 290 290 289 288 288 288 288 288 288 288 288 287 287 287 286 287 287 289 291 293
315 315 315 314 314 314 313 312 312 311 310 309 308 307 307 306 305 305 303 302 301 300 299 297 297 296 295 295 294 293 292 291 290 289 289 288 288 287 288 288 287 287 288 288 287 286 286 287 287 287 289 291
315 314 315 314 314 314 313 313 312 310 310 309 308 307 306 306 305 304 303 302 301 300 298 296 296 295 294 294 293 292 292 291 290 289 289 288 288 287 287 288 287 287 288 288 287 286 286 287 287 287 288 290
315 314 314 314 313 314 313 313 312 310 310 309 308 307 306 305 305 304 303 302 300 299 297 296 295 295 294 293 292 292 291 290 289 289 289 288 288 287 287 288 288 287 288 288 287 287 286 287 287 286 287 288
315 315 314 313 313 312 312 312 311 309 309 309 308 307 306 305 305 304 303 301 300 298 297 296 295 295 294 293 292 292 291 290 289 289 289 288 288 288 288 289 288 288 288 288 287 287 286 287 287 287 287 287
314 315 314 312 312 311 310 311 310 308 308 308 307 306 306 305 305 305 303 302 300 298 296 296 295 294 294 293 292 292 291 290 289 289 289 288 288 289 289 289 289 288 288 288 287 287 287 287 286 287 287 287
313 315 314 313 312 311 310 310 310 308 307 307 306 306 306 306 305 305 304 302 300 298 296 295 295 294 293 293 292 291 291 290 289 289 289 288 288 288 288 289 288 288 288 288 287 287 287 286 286 287 287 287
313 314 314 312 311 310 309 308 308 307 306 306 306 306 306 305 305 305 304 302 301 298 295 294 294 294 294 293 293 292 291 290 289 289 289 289 288 288 288 288 288 288 288 287 287 287 287 286 286 286 287 286
313 313 312 311 310 308 308 307 307 307 305 305 305 305 304 304 304 304 304 302 301 298 295 294 293 293 294 294 293 292 292 291 290 290 289 288 288 287 287 288 288 288 288 287 287 287 286 286 286 286 286 286
313 312 311 310 309 308 307 307 306 305 304 304 304 304 303 303 303 304 303 302 301 299 296 295 293 293 293 294 294 293 293 292 291 290 289 288 288 287 287 288 288 288 287 287 287 287 286 286 286 285 285 285
312 312 311 310 309 308 307 306 305 305 304 304 303 301 301 301 302 302 302 301 301 299 296 294 294 293 293 294 294 294 293 291 290 290 289 288 288 288 288 288 288 287 287 287 287 288 287 287 286 285 285 285
311 311 311 311 310 310 309 308 307 306 304 303 302 301 300 300 300 300 300 299 298 298 296 295 293 293 293 294 294 293 292 291 290 289 289 289 289 289 288 288 287 287 287 287 288 288 288 288 288 287 286 285
310 310 310 311 311 310 308 307 307 305 303 302 302 301 300 300 300 300 299 298 297 297 297 296 295 294 293 293 293 292 291 290 290 290 289 289 289 289 289 288 287 287 286 287 288 288 288 289 288 289 288 287
308 309 309 309 308 307 306 305 304 303 301 301 301 301 301 301 301 301 299 298 297 297 297 297 296 294 293 293 292 292 291 290 290 290 290 290 290 289 289 289 288 287 286 287 288 288 289 289 289 290 290 288
303 305 307 308 306 305 304 303 302 302 301 301 301 302 301 301 300 300 299 297 297 297 296 296 295 294 293 292 292 292 291 291 291 290 290 290 290 290 290 289 288 287 287 287 288 288 289 289 290 290 290 290
299 300 302 305 306 305 304 303 302 302 302 302 303 301 299 298 298 298 297 297 296 295 295 294 294 293 293 292 292 292 291 291 291 291 291 291 291 290 290 290 290 288 287 287 287 287 288 289 289 289 289 290
Wind_Speed
28 30 27 25 25 25 25 24 24 23 22 21 19 19 19 18 17 17 16 15 15 14 13 13 12 12 12 12 11 11 11 11 10 9 9 8 7 8 8 9 12 14 13 13 13 12 12 11 13 15 12 10
28 28 27 26 26 26 25 25 25 24 23 22 21 20 20 20 19 17 16 15 15 14 14 13 12 12 12 11 11 11 11 10 10 9 8 7 6 6 7 8 10 11 11 11 11 11 11 11 13 14 12 10
27 26 28 28 28 28 26 26 27 27 25 24 23 22 21 21 20 19 17 16 15 15 14 13 13 11 10 11 10 10 10 9 9 8 7 6 5 6 7 8 9 9 10 10 10 11 12 13 14 13 10 9
29 28 30 31 29 29 28 26 26 27 26 25 25 24 22 21 21 20 18 16 16 17 15 14 13 12 10 10 10 9 9 9 9 8 8 6 5 6 7 8 9 9 9 9 11 12 13 14 12 9 8 8
31 31 32 32 30 29 29 27 26 26 25 25 25 23 22 21 21 21 19 17 17 18 17 15 14 13 11 11 10 10 9 9 9 8 8 7 5 4 4 6 7 8 9 9 10 11 13 11 8 8 7 7
31 32 32 32 30 28 28 27 27 26 25 25 24 23 22 22 22 21 21 19 19 19 18 18 16 14 12 11 11 10 10 10 9 8 7 6 4 3 4 6 6 7 8 9 10 10 11 7 6 8 7 6
30 33 32 32 29 27 29 29 28 27 26 25 24 24 23 23 22 22 22 21 20 19 18 18 17 16 14 12 12 11 11 10 9 9 8 6 4 3 4 5 6 8 8 9 9 9 9 5 7 9 6 6
29 33 32 32 31 30 32 31 30 30 28 26 25 25 24 23 23 22 22 21 20 19 19 18 18 17 15 14 15 14 13 13 13 11 7 5 4 4 4 5 6 7 8 9 8 7 6 6 10 9 5 6
30 33 33 33 32 32 33 34 33 32 29 27 25 25 25 24 23 23 22 21 20 19 19 18 18 19 17 18 18 17 15 14 12 9 6 5 5 4 5 6 6 6 6 7 6 5 5 7 10 8 5 5
31 30 31 31 32 31 32 34 34 31 30 28 26 26 25 25 24 24 22 22 21 18 19 20 20 19 18 20 20 17 13 12 10 7 6 6 6 5 6 7 8 7 6 6 5 5 7 8 7 5 5 5
32 30 31 32 32 31 32 34 34 32 31 29 27 27 26 26 25 25 24 23 22 19 18 21 22 19 17 19 20 17 12 11 11 8 7 7 8 8 8 8 8 9 8 8 7 7 10 10 6 4 5 5
35 35 35 35 34 33 34 36 36 35 33 30 28 27 27 26 26 26 25 24 24 21 17 20 24 21 18 18 18 15 12 13 12 9 8 9 9 9 8 8 8 8 9 8 8 8 10 10 8 5 5 6
37 36 36 37 36 35 37 38 37 35 33 31 30 29 28 27 27 27 27 26 26 24 18 17 20 20 18 16 15 14 12 14 12 9 9 9 8 8 8 8 8 8 8 7 7 8 10 10 8 7 7 8
38 37 37 38 38 38 39 38 36 34 32 32 31 31 30 30 29 29 29 28 27 27 23 19 19 19 18 17 16 16 14 14 13 11 10 9 8 9 8 7 7 8 8 8 8 8 10 9 8 7 7 8
39 39 38 39 40 41 41 39 36 34 33 33 34 33 32 32 31 30 30 30 28 28 26 24 23 20 19 20 20 19 17 16 14 12 12 11 9 9 8 8 8 7 7 8 9 9 10 9 8 7 6 8
39 40 40 40 41 42 41 39 37 36 36 36 36 35 34 33 33 32 32 30 29 28 28 27 25 23 21 22 22 20 18 18 16 13 13 12 11 10 8 8 9 8 7 7 8 9 10 9 9 8 7 7
39 39 42 42 44 44 41 40 39 39 39 38 38 37 36 35 34 33 32 31 30 28 28 27 26 25 24 23 23 22 21 20 18 15 14 14 13 12 10 9 10 10 8 7 8 9 9 9 9 9 8 7
37 38 43 44 44 45 43 42 42 42 42 41 39 38 37 36 35 34 33 32 31 29 29 28 27 26 25 24 23 23 23 21 18 16 15 15 14 14 12 9 10 10 8 8 9 9 10 8 9 10 9 7
37 39 42 44 45 47 47 46 45 45 45 44 42 41 40 38 36 35 35 33 32 31 30 29 28 27 26 25 24 24 23 22 18 15 15 16 14 13 12 9 10 10 9 9 9 9 10 8 8 9 9 9
37 41 40 42 43 42 42 44 43 41 42 44 43 43 42 41 39 36 35 34 33 32 32 30 30 29 27 26 26 24 24 22 18 16 16 16 14 13 12 10 10 10 9 9 9 9 8 8 9 8 8 10
32 40 40 40 39 36 37 41 40 38 40 42 42 44 44 42 41 39 37 35 33 33 33 32 31 30 29 27 27 25 25 23 20 19 18 17 16 13 11 11 10 10 9 9 9 9 9 9 10 8 7 9
28 39 42 39 39 38 37 40 41 38 38 41 42 44 45 44 43 40 38 36 34 33 33 33 32 31 30 29 28 26 26 25 22 21 21 19 18 15 11 11 11 11 9 9 9 9 9 10 9 8 8 8
29 36 39 37 36 36 36 36 38 37 36 39 43 45 46 45 44 42 39 37 36 34 32 30 30 32 32 31 29 28 27 26 25 24 23 21 20 18 14 11 11 11 10 10 10 9 8 9 9 8 8 9
31 32 32 31 30 31 32 33 35 36 36 37 41 44 44 44 44 42 40 39 38 37 34 29 29 32 34 33 31 29 28 28 28 27 25 23 21 20 16 11 10 11 10 9 9 8 7 8 9 9 9 9
28 28 27 26 27 29 30 31 32 33 34 36 39 41 42 43 44 43 42 41 40 40 38 34 32 34 35 34 32 31 30 29 29 29 27 23 21 20 18 13 12 13 11 9 7 7 7 8 9 11 13 12
26 29 30 28 29 31 31 31 32 34 36 36 36 36 38 39 40 42 43 43 41 41 40 35 33 36 37 36 34 32 31 31 30 30 28 25 21 20 19 15 14 17 14 10 9 8 6 7 9 12 16 16
23 26 31 34 34 35 35 35 38 38 36 35 33 32 34 35 37 40 41 42 41 41 41 36 33 36 38 37 36 35 35 33 32 31 31 29 25 20 18 15 15 21 19 13 11 9 6 5 6 8 12 16
18 21 26 33 35 36 35 35 37 35 31 31 32 32 34 36 39 40 41 41 41 41 42 41 37 37 39 38 37 36 35 34 35 35 34 33 29 21 18 16 16 22 24 19 12 8 6 6 5 5 8 13
16 19 23 25 24 24 24 22 23 25 25 27 30 32 36 39 41 43 43 43 42 43 43 43 42 39 39 39 38 36 34 33 34 36 35 36 33 26 21 19 17 20 25 26 20 12 7 5 5 5 7 10
18 17 19 20 19 16 17 16 17 22 24 27 33 37 38 39 41 43 44 43 43 44 45 45 44 41 38 37 38 38 36 33 32 33 34 37 36 31 27 21 18 18 22 27 27 23 15 8 4 3 5 7
21 20 19 17 19 19 19 18 19 24 28 31 35 36 33 34 37 39 41 43 42 42 43 43 42 42 40 38 39 39 36 34 33 34 35 37 37 36 32 26 19 17 20 22 25 28 26 19 12 7 5 4
Wind_Direction
169 164 162 159 160 160 157 153 148 150 149 147 148 148 147 146 145 144 143 141 140 139 138 139 140 136 132 129 129 127 126 124 125 126 122 122 115 110 127 147 152 151 148 146 143 138 134 134 137 121 102 102
170 166 163 163 163 160 158 155 151 152 150 150 151 151 153 154 150 147 148 147 145 143 141 141 140 139 135 133 132 131 131 128 130 129 127 127 111 114 138 152 158 160 158 156 151 147 142 143 145 125 101 100
174 173 169 167 165 161 161 161 159 157 155 154 155 157 161 159 153 150 151 152 151 146 142 145 143 141 139 138 138 137 136 133 134 133 134 126 111 139 159 159 159 161 162 161 157 153 148 148 144 123 100 100
178 175 171 170 168 165 166 168 168 167 164 161 161 163 165 163 156 154 155 156 157 150 146 149 144 144 148 148 147 146 145 141 138 138 139 131 128 156 168 167 166 164 162 161 158 154 153 149 136 116 100 104
176 173 173 173 172 171 171 174 174 171 168 165 165 167 168 165 160 158 158 158 163 159 153 153 148 149 156 155 155 154 152 148 145 147 147 141 144 153 156 163 168 169 166 164 162 159 158 150 132 122 109 107
176 175 174 173 172 173 174 175 174 171 168 166 167 170 169 168 165 163 163 166 169 167 162 159 155 156 161 161 160 160 158 155 153 157 159 157 164 159 152 161 164 168 169 168 166 165 159 140 136 138 114 108
179 177 175 175 175 174 175 175 173 171 170 168 169 170 171 171 171 170 173 177 177 174 171 168 163 161 165 166 163 164 164 164 167 173 177 183 194 180 162 160 164 169 168 167 166 167 158 141 154 147 118 113
183 180 177 177 177 176 176 175 174 174 174 172 172 173 174 177 177 178 181 183 182 181 178 174 172 167 167 171 170 168 168 173 181 186 190 193 193 183 168 155 163 169 168 167 165 164 161 164 163 148 121 122
189 183 179 177 176 177 175 176 177 178 178 176 177 178 180 183 183 185 186 185 184 183 181 179 177 173 172 176 178 175 176 184 188 191 199 189 177 175 170 161 161 161 163 167 163 159 161 166 163 149 132 130
189 182 182 180 177 177 175 178 180 180 180 180 181 183 185 186 188 190 189 186 182 178 182 185 180 176 177 182 185 183 184 193 193 194 203 187 170 170 177 176 171 164 159 159 159 169 168 160 155 149 141 136
189 185 189 186 183 180 178 181 183 183 184 183 183 187 189 189 190 193 191 187 181 174 178 186 182 176 177 185 190 188 187 199 202 201 198 189 183 186 190 187 184 179 175 173 173 179 177 165 151 144 143 144
192 192 194 193 192 188 186 189 189 189 187 186 186 189 192 192 194 195 194 192 188 179 175 185 187 184 184 188 191 188 193 208 208 201 198 201 199 197 198 191 185 185 183 182 180 180 180 171 158 149 144 145
196 195 194 194 195 193 194 195 194 192 188 187 189 191 194 196 197 197 197 197 196 190 179 180 186 187 187 187 186 184 193 210 207 197 201 207 200 195 195 189 185 184 178 173 175 180 180 173 166 162 155 151
197 195 192 193 194 194 198 196 194 194 190 190 192 194 196 198 200 199 200 200 200 197 188 183 184 185 187 186 189 190 195 209 207 200 205 202 192 190 184 178 182 180 174 175 175 179 178 171 167 161 158 158
198 196 195 196 196 198 199 196 193 194 192 194 195 197 198 200 202 201 202 205 204 202 198 197 194 191 193 196 200 202 203 210 208 205 210 205 194 189 178 176 182 171 174 185 184 184 179 170 166 162 158 160
200 199 199 201 200 200 199 196 196 195 195 197 198 200 200 200 202 202 205 208 208 207 206 207 205 200 201 203 206 207 207 210 209 207 211 209 200 191 181 182 183 170 168 183 188 191 185 177 173 165 162 164
203 201 203 204 203 202 200 200 201 199 200 201 201 201 201 200 201 202 206 209 210 210 211 212 210 208 208 207 209 209 211 213 212 210 213 212 206 198 187 187 191 181 168 176 187 191 185 183 184 177 171 168
208 205 207 205 204 205 203 204 204 202 203 204 203 204 203 201 201 203 208 211 211 211 212 213 212 213 213 210 210 212 214 214 211 210 214 213 208 203 194 188 196 188 174 179 185 190 188 183 188 187 178 170
214 212 211 207 205 207 206 206 206 203 204 205 205 207 205 203 204 206 209 211 211 210 211 212 212 214 213 211 212 214 215 212 207 204 210 212 204 201 197 187 192 187 178 181 179 189 191 181 187 190 185 187
219 219 215 211 209 208 207 207 208 204 204 206 206 207 206 205 206 206 208 210 211 209 209 211 212 213 212 212 213 214 214 210 204 203 209 211 202 195 194 187 187 186 183 181 176 184 181 178 190 184 188 199
223 223 219 215 212 211 210 211 213 209 207 208 207 207 207 206 208 208 209 210 212 211 209 210 211 210 209 212 212 211 213 209 206 208 210 209 204 195 190 188 188 186 186 184 181 185 181 187 196 185 187 196
223 226 224 218 215 214 213 215 216 213 210 210 209 210 210 210 209 210 210 210 212 212 209 208 208 207 208 211 210 209 211 208 206 211 212 210 208 199 190 190 193 190 188 185 183 187 192 199 200 190 190 188
225 228 225 220 217 216 216 216 217 216 215 214 213 212 212 212 210 210 211 209 210 210 206 205 203 203 208 210 209 209 210 207 207 212 213 212 211 205 198 196 195 192 188 191 194 193 197 203 202 196 194 192
227 226 221 218 216 216 218 218 218 218 219 218 215 213 212 212 211 211 211 209 209 209 207 207 204 205 208 209 209 209 209 209 211 214 213 211 212 207 200 196 195 188 183 188 196 198 204 208 207 206 204 205
225 221 216 215 216 218 220 220 220 219 221 221 218 215 214 214 213 212 212 211 211 210 210 209 208 210 210 208 208 209 210 211 212 214 213 208 208 207 199 192 191 186 178 179 186 195 212 219 221 222 220 218
226 223 219 218 219 222 223 223 224 223 223 223 221 217 216 216 215 213 213 213 212 209 208 207 208 212 213 210 208 209 210 210 209 212 210 203 201 203 201 196 194 191 183 185 196 195 203 217 224 231 233 231
231 226 225 225 226 227 226 226 229 230 226 223 222 221 221 221 219 215 214 214 212 208 207 208 209 213 215 213 209 207 206 205 206 209 207 203 199 195 196 197 198 203 199 193 198 200 208 210 201 216 227 230
252 239 235 233 231 228 226 226 228 228 226 224 225 225 225 224 223 220 217 216 215 213 210 210 212 216 217 215 211 206 204 202 204 206 205 203 200 189 186 190 196 210 210 201 194 199 215 209 204 219 204 209
295 265 253 243 234 225 220 223 222 218 219 222 225 228 229 229 227 225 223 221 219 219 216 215 215 217 218 217 214 210 206 204 205 206 204 203 200 192 189 189 189 204 213 208 203 203 216 214 223 242 185 178
337 308 278 254 239 227 219 218 216 216 219 220 225 230 230 230 228 226 225 224 223 222 220 218 215 215 216 216 216 213 210 208 208 207 206 205 203 198 197 195 187 192 207 213 211 211 224 240 245 264 188 170
353 343 321 286 254 237 229 226 225 226 227 228 232 233 229 227 228 227 226 225 225 224 223 222 218 215 216 217 218 217 214 212 211 210 210 209 207 204 203 200 194 189 193 206 215 215 223 234 236 253 247 213